Weather History for LHKE - May, 2013

Change the Weather History Date:

Friday, May 24, 2013

  Actual Average (LHBP) Record (LHBP)
Temperature  
Mean Temperature 58 °F -  
Max Temperature 66 °F 72 °F 86 °F (2007)
Min Temperature 50 °F 50 °F 23 °F (2001)
Degree Days  
Heating Degree Days 7    
Growing Degree Days 8 (Base 50)    
Moisture  
Dew Point 44 °F    
Average Humidity 64    
Maximum Humidity 82    
Minimum Humidity 42    
Precipitation  
Precipitation 0.00 in - - ()
Sea Level Pressure  
Sea Level Pressure 29.67 in    
Wind  
Wind Speed 4 mph ()    
Max Wind Speed 9 mph    
Max Gust Speed -    
Visibility 5.5 miles    
Events Rain , Thunderstorm    
Averages and records for this station are not official NWS values.
T = Trace of Precipitation, MM = Missing Value Source: Averaged Metar Reports

Daily Weather History Graph

Daily Weather History Graph

Search for Another Location

Airport or City:

Trip Planner

Search our weather history database for the weather conditions in past years. The results will help you decide how hot, cold, wet, or windy it might be!

Date:

Astronomy

May. 24, 2013 Rise Set
Actual Time 4:56 AM CEST 8:20 PM CEST
Civil Twilight 4:19 AM CEST 8:57 PM CEST
Nautical Twilight 3:29 AM CEST 9:46 PM CEST
Astronomical Twilight 2:26 AM CEST 10:50 PM CEST
Moon 7:38 PM CEST (5/24) 4:17 AM CEST (5/24)
Length of Visible Light 16h 38m
Length of Day
15h 23m
Waxing Gibbous, 99% of the Moon is Illuminated
May 24
Waxing Gibbous
May 25
Full
May 31
Last Quarter
Jun 8
New
Jun 16
First Quarter

Hourly Weather History & Observations

Time (CEST) Temp. Dew Point Humidity Pressure Visibility Wind Dir Wind Speed Gust Speed Precip Events Conditions
12:15 AM 53.6 °F 48.2 °F 82% 29.62 in - NNW 4.5 mph - N/A   Clear
12:45 AM 53.6 °F 48.2 °F 82% 29.62 in - NW 2.2 mph - N/A   Clear
1:15 AM 53.6 °F 46.4 °F 77% 29.62 in - West 2.2 mph - N/A   Clear
1:45 AM 53.6 °F 44.6 °F 72% 29.62 in 6.2 mi WSW 2.2 mph - N/A   Overcast
2:15 AM 51.8 °F 44.6 °F 76% 29.62 in 6.2 mi West 4.5 mph - N/A   Overcast
2:45 AM 51.8 °F 44.6 °F 76% 29.62 in 6.2 mi West 4.5 mph - N/A   Overcast
3:15 AM 51.8 °F 42.8 °F 71% 29.62 in 6.2 mi West 4.5 mph - N/A   Overcast
3:45 AM - - N/A% - 3.1 mi West 6.7 mph - N/A Rain Light Rain
4:15 AM 51.8 °F 42.8 °F 71% 29.62 in - WSW 2.2 mph - N/A   Clear
4:45 AM 50.0 °F 42.8 °F 76% 29.62 in - West 4.5 mph - N/A   Clear
5:15 AM 50.0 °F 42.8 °F 76% 29.65 in - WSW 4.5 mph - N/A   Clear
5:45 AM 50.0 °F 42.8 °F 76% 29.65 in - WSW 6.7 mph - N/A   Clear
6:15 AM 50.0 °F 42.8 °F 76% 29.65 in - West 6.7 mph - N/A   Clear
6:45 AM - - N/A% - 6.2 mi West 6.7 mph - N/A   Clear
7:15 AM 50.0 °F 42.8 °F 76% 29.65 in 6.2 mi WSW 4.5 mph - N/A   Overcast
7:45 AM 51.8 °F 42.8 °F 71% 29.65 in 6.2 mi WSW 4.5 mph - N/A   Mostly Cloudy
8:15 AM 51.8 °F 42.8 °F 71% 29.65 in 6.2 mi WSW 4.5 mph - N/A   Mostly Cloudy
8:45 AM 51.8 °F 42.8 °F 71% 29.65 in 6.2 mi WSW 4.5 mph - N/A   Mostly Cloudy
9:15 AM 53.6 °F 44.6 °F 72% 29.68 in 6.2 mi SSW 4.5 mph - N/A   Mostly Cloudy
9:45 AM - - N/A% - 6.2 mi SW 6.7 mph - N/A   Clear
10:15 AM 55.4 °F 44.6 °F 67% 29.68 in 6.2 mi SSW 4.5 mph - N/A   Mostly Cloudy
10:45 AM 57.2 °F 46.4 °F 67% 29.68 in 6.2 mi SSW 4.5 mph - N/A   Mostly Cloudy
11:15 AM 59.0 °F 46.4 °F 63% 29.68 in 6.2 mi SSE 4.5 mph - N/A   Mostly Cloudy
11:45 AM 60.8 °F 46.4 °F 59% 29.68 in 6.2 mi South 4.5 mph - N/A   Mostly Cloudy
12:15 PM 62.6 °F 42.8 °F 48% 29.68 in 6.2 mi SSW 6.7 mph - N/A   Scattered Clouds
12:45 PM - - N/A% - 3.1 mi Variable 4.5 mph - N/A Rain , Thunderstorm Light Rain Showers
1:15 PM 62.6 °F 44.6 °F 52% 29.68 in 6.2 mi SW 4.5 mph - N/A   Scattered Clouds
1:45 PM 64.4 °F 44.6 °F 49% 29.68 in - SW 6.7 mph - N/A   Clear
2:15 PM 64.4 °F 44.6 °F 49% 29.68 in - SW 8.9 mph - N/A   Clear
2:45 PM 66.2 °F 44.6 °F 46% 29.68 in - SW 6.7 mph - N/A   Clear
3:15 PM 66.2 °F 42.8 °F 43% 29.68 in - SSW 8.9 mph - N/A   Clear
3:45 PM - - N/A% - 3.1 mi SW 6.7 mph - N/A Rain , Thunderstorm Light Rain Showers
4:15 PM 66.2 °F 44.6 °F 46% 29.68 in - SW 6.7 mph - N/A   Clear
4:45 PM 66.2 °F 42.8 °F 43% 29.68 in - SW 6.7 mph - N/A   Clear
5:15 PM 66.2 °F 44.6 °F 46% 29.68 in - WSW 6.7 mph - N/A   Clear
5:45 PM 64.4 °F 41.0 °F 42% 29.68 in - WSW 6.7 mph - N/A   Clear
6:15 PM 62.6 °F 42.8 °F 48% 29.68 in - WSW 6.7 mph - N/A   Clear
6:45 PM - - N/A% - 3.1 mi WSW 6.7 mph - N/A Rain Rain Showers
7:15 PM 62.6 °F 44.6 °F 52% 29.68 in - West 6.7 mph - N/A   Clear
7:45 PM 59.0 °F 44.6 °F 59% 29.71 in - West 6.7 mph - N/A   Clear
8:15 PM 57.2 °F 44.6 °F 63% 29.71 in - NW 4.5 mph - N/A   Clear
8:45 PM 57.2 °F 42.8 °F 59% 29.71 in - WNW 4.5 mph - N/A   Clear
9:15 PM 55.4 °F 42.8 °F 63% 29.74 in - West 4.5 mph - N/A   Clear
9:45 PM - - N/A% - 3.1 mi West 4.5 mph - N/A Rain Rain Showers
10:15 PM 51.8 °F 42.8 °F 71% 29.74 in - WNW 4.5 mph - N/A   Clear
10:45 PM 53.6 °F 42.8 °F 67% 29.74 in - WNW 4.5 mph - N/A   Clear
11:15 PM 55.4 °F 42.8 °F 63% 29.74 in - Calm Calm - N/A   Clear
11:45 PM 53.6 °F 44.6 °F 72% 29.74 in - West 2.2 mph - N/A   Clear